Weather History for Newark Heath, OH

Change the Weather History Date:

Monday, June 24, 2013

  Actual Average Record
Temperature  
Mean Temperature 74 °F -  
Max Temperature 88 °F 82 °F 96 °F (1952)
Min Temperature 60 °F 58 °F 43 °F (1982)
Cooling Degree Days 8    
Growing Degree Days 24 (Base 50)    
Moisture  
Dew Point 65 °F    
Average Humidity 75    
Maximum Humidity 100    
Minimum Humidity 49    
Precipitation  
Precipitation 0.20 in - - ()
Sea Level Pressure  
Sea Level Pressure 30.09 in    
Wind  
Wind Speed 3 mph (SW)    
Max Wind Speed 13 mph    
Max Gust Speed 23 mph    
Visibility 8 miles    
Events Rain , Thunderstorm    
Averages and records for this station are not official NWS values.
T = Trace of Precipitation, MM = Missing Value Source: NWS Daily Summary

Daily Weather History Graph

Daily Weather History Graph

Search for Another Location

Airport:

Trip Planner

Search our weather history database for the weather conditions in past years. The results will help you decide how hot, cold, wet, or windy it might be!

Date:

Astronomy

Jun. 24, 2013 Rise Set
Actual Time 6:01 AM EDT 9:02 PM EDT
Civil Twilight 5:29 AM EDT 9:35 PM EDT
Nautical Twilight 4:47 AM EDT 10:17 PM EDT
Astronomical Twilight 3:58 AM EDT 11:06 PM EDT
Moon 10:04 PM EDT (6/24) 7:28 AM EDT (6/24)
Length of Visible Light 16h 06m
Length of Day
15h 00m
Full, 98% of the Moon is Illuminated
Jun 24
Full
Jun 30
Last Quarter
Jul 8
New
Jul 15
First Quarter
Jul 22
Full

Hourly Weather History & Observations

Time (EDT) Temp. Heat Index Dew Point Humidity Pressure Visibility Wind Dir Wind Speed Gust Speed Precip Events Conditions
12:54 AM 64.9 °F - 63.0 °F 93% 30.12 in 10.0 mi Calm Calm - N/A   Clear
1:54 AM 64.9 °F - 62.1 °F 90% 30.10 in 10.0 mi Calm Calm - N/A   Clear
2:54 AM 64.0 °F - 61.0 °F 90% 30.09 in 10.0 mi Calm Calm - N/A   Clear
3:54 AM 63.0 °F - 61.0 °F 93% 30.10 in 8.0 mi Calm Calm - N/A   Clear
4:54 AM 62.1 °F - 60.1 °F 93% 30.10 in 7.0 mi Calm Calm - N/A   Clear
5:54 AM 63.0 °F - 61.0 °F 93% 30.10 in 3.0 mi Calm Calm - N/A   Clear
6:07 AM 60.8 °F - 60.8 °F 100% 30.12 in 2.0 mi Calm Calm - N/A   Clear
6:39 AM 62.6 °F - 60.8 °F 94% 30.13 in 3.0 mi Calm Calm - N/A   Clear
6:54 AM 64.0 °F - 62.1 °F 93% 30.12 in 3.0 mi Calm Calm - N/A   Clear
7:54 AM 69.1 °F - 64.0 °F 84% 30.13 in 6.0 mi Calm Calm - N/A   Haze
8:54 AM 75.0 °F - 66.0 °F 73% 30.14 in 10.0 mi SSW 3.5 mph - N/A   Clear
9:54 AM 80.1 °F 82.1 °F 66.0 °F 62% 30.14 in 10.0 mi South 6.9 mph - N/A   Clear
10:54 AM 82.9 °F 85.4 °F 66.9 °F 58% 30.13 in 10.0 mi SSW 9.2 mph - N/A   Clear
11:54 AM 84.0 °F 87.0 °F 68.0 °F 58% 30.13 in 10.0 mi SW 9.2 mph - N/A   Partly Cloudy
12:54 PM 84.9 °F 86.6 °F 64.9 °F 51% 30.12 in 10.0 mi WSW 11.5 mph - N/A   Scattered Clouds
1:54 PM 86.0 °F 87.6 °F 64.9 °F 49% 30.09 in 10.0 mi SW 6.9 mph - N/A   Partly Cloudy
2:54 PM 86.0 °F 87.6 °F 64.9 °F 49% 30.06 in 10.0 mi SSW 10.4 mph 16.1 mph N/A   Partly Cloudy
3:02 PM 87.8 °F 90.4 °F 66.2 °F 49% 30.07 in 10.0 mi WSW 11.5 mph - N/A Thunderstorm Partly Cloudy
3:38 PM 69.8 °F - 66.2 °F 88% 30.11 in 1.8 mi West 12.7 mph 23.0 mph 0.10 in Rain , Thunderstorm Heavy Thunderstorms and Rain
3:52 PM 71.6 °F - 69.8 °F 94% 30.09 in 3.0 mi Calm Calm - 0.20 in Rain , Thunderstorm Light Thunderstorms and Rain
3:54 PM 73.0 °F - 69.1 °F 87% 30.08 in 4.0 mi Calm Calm - 0.20 in Rain , Thunderstorm Light Thunderstorms and Rain
4:39 PM 80.6 °F 83.9 °F 69.8 °F 70% 30.07 in 10.0 mi Variable 4.6 mph - 0.00 in   Clear
4:54 PM 81.0 °F 84.4 °F 70.0 °F 69% 30.05 in 10.0 mi SSW 5.8 mph - 0.00 in   Clear
5:50 PM 84.2 °F 87.3 °F 68.0 °F 58% 30.05 in 10.0 mi SSW 6.9 mph - N/A   Partly Cloudy
5:54 PM 84.0 °F 87.0 °F 68.0 °F 58% 30.03 in 10.0 mi SW 8.1 mph - N/A   Partly Cloudy
6:54 PM 82.0 °F 83.8 °F 64.9 °F 56% 30.01 in 10.0 mi SW 6.9 mph - N/A   Clear
7:54 PM 81.0 °F 83.8 °F 68.0 °F 65% 30.02 in 9.0 mi SW 8.1 mph - N/A   Clear
8:54 PM 78.1 °F - 68.0 °F 71% 30.03 in 7.0 mi SW 5.8 mph - N/A   Clear
9:54 PM 77.0 °F - 68.0 °F 74% 30.02 in 10.0 mi SSW 4.6 mph - N/A   Clear
10:54 PM 75.0 °F - 66.9 °F 76% 30.04 in 10.0 mi SW 5.8 mph - N/A   Clear
11:54 PM 73.9 °F - 68.0 °F 82% 30.05 in 10.0 mi WSW 5.8 mph - N/A   Partly Cloudy